DW0490 Weather Reports


time (UTC)temp
C
wind
direction
speed
KPH
gust
KPH
rain 1hr
cm
rain 24hr
cm
rain mn
cm
humidity
%
barometer
mb
20260504004543 19 211 11.3 25.7 0.00 0.00 0.00 60 1013.0
20260504004019 19 244 9.7 25.7 0.00 0.00 0.00 60 1012.9
20260504003520 19 189 11.3 25.7 0.00 0.00 0.00 59 1013.0
20260504003035 20 178 9.7 27.4 0.00 0.00 0.00 59 1012.9
20260504002519 20 217 8.0 27.4 0.00 0.00 0.00 59 1012.8
20260504002019 20 240 11.3 19.3 0.00 0.00 0.00 58 1012.7
20260504001535 20 206 9.7 20.9 0.00 0.00 0.00 58 1012.7
20260504001022 20 218 6.4 20.9 0.00 0.00 0.00 58 1012.6
20260504000524 20 248 4.8 17.7 0.00 0.00 0.00 59 1012.4
20260504000040 19 208 6.4 17.7 0.00 0.00 0.00 60 1012.5
20260503235521 20 220 1.6 14.5 0.00 0.00 0.00 60 1012.6
20260503235019 20 217 4.8 19.3 0.00 0.00 0.00 60 1012.6
20260503234538 20 203 4.8 19.3 0.00 0.00 0.00 58 1012.4
20260503234020 20 221 6.4 17.7 0.00 0.00 0.00 59 1012.5
20260503233519 20 231 9.7 16.1 0.00 0.00 0.00 58 1012.6
20260503233035 20 220 8.0 17.7 0.00 0.00 0.00 60 1012.7
20260503232519 20 221 8.0 20.9 0.00 0.00 0.00 59 1012.8
20260503232019 20 221 11.3 24.1 0.00 0.00 0.00 58 1012.9
20260503231536 20 244 9.7 24.1 0.00 0.00 0.00 58 1013.0
20260503231022 20 270 8.0 19.3 0.00 0.00 0.00 60 1012.9
20260503230521 20 234 9.7 19.3 0.00 0.00 0.00 62 1013.0
20260503230035 19 238 9.7 17.7 0.00 0.00 0.00 62 1013.0
20260503225521 19 233 8.0 19.3 0.00 0.00 0.00 62 1013.1
20260503225021 19 264 6.4 19.3 0.00 0.00 0.00 62 1013.1
20260503224538 19 212 3.2 19.3 0.00 0.00 0.00 64 1013.0
20260503224021 19 219 6.4 19.3 0.00 0.00 0.00 64 1013.1
20260503223524 19 231 9.7 19.3 0.00 0.00 0.00 65 1013.2
20260503223037 19 207 8.0 16.1 0.00 0.00 0.00 65 1013.3
20260503222519 19 228 4.8 14.5 0.00 0.00 0.00 66 1013.3
20260503222019 19 229 6.4 14.5 0.00 0.00 0.00 66 1013.4
20260503221536 18 226 3.2 14.5 0.00 0.00 0.00 66 1013.4
20260503221017 18 215 6.4 14.5 0.00 0.00 0.00 66 1013.5
20260503220520 18 200 3.2 16.1 0.00 0.00 0.00 67 1013.5
20260503220038 18 0 4.8 16.1 0.00 0.00 0.00 67 1013.6
20260503215516 18 238 4.8 20.9 0.00 0.00 0.00 67 1013.7
20260503215016 18 241 4.8 20.9 0.00 0.00 0.00 67 1013.6
20260503214534 18 238 11.3 20.9 0.00 0.00 0.00 68 1013.7
20260503214016 18 236 4.8 17.7 0.00 0.00 0.00 69 1013.7
20260503213519 18 217 6.4 22.5 0.00 0.00 0.00 69 1013.7
20260503213032 18 214 9.7 22.5 0.00 0.00 0.00 69 1013.7
20260503212516 18 215 9.7 20.9 0.00 0.00 0.00 69 1013.7
20260503212017 18 223 6.4 14.5 0.00 0.00 0.00 70 1013.7
20260503211541 18 226 4.8 14.5 0.00 0.00 0.00 70 1013.8
20260503211019 18 207 1.6 17.7 0.00 0.00 0.00 71 1013.7
20260503210520 18 223 8.0 17.7 0.00 0.00 0.00 70 1013.8
20260503210035 18 220 4.8 16.1 0.00 0.00 0.00 71 1013.7
20260503205524 18 224 4.8 16.1 0.00 0.00 0.00 70 1013.8
20260503205017 19 192 8.0 17.7 0.00 0.00 0.00 70 1013.8
20260503204535 19 248 6.4 17.7 0.00 0.00 0.00 69 1013.8
20260503204016 19 207 1.6 9.7 0.00 0.00 0.00 70 1013.8
20260503203516 19 0 3.2 12.9 0.00 0.00 0.00 70 1013.8
20260503203036 19 0 3.2 12.9 0.00 0.00 0.00 70 1014.0
20260503202516 18 213 1.6 12.9 0.00 0.00 0.00 70 1014.1
20260503202017 18 0 0.0 11.3 0.00 0.00 0.00 71 1014.1
20260503201534 18 223 0.0 11.3 0.00 0.00 0.00 71 1014.1
20260503201017 18 219 3.2 14.5 0.00 0.00 0.00 71 1014.1
20260503200516 18 208 1.6 16.1 0.00 0.00 0.00 70 1014.1
20260503200035 18 219 8.0 16.1 0.00 0.00 0.00 71 1014.2
20260503195517 18 225 3.2 17.7 0.00 0.00 0.00 70 1014.3
20260503195019 18 232 6.4 17.7 0.00 0.00 0.00 70 1014.3
20260503194542 18 0 0.0 14.5 0.00 0.00 0.00 72 1014.4
20260503194020 18 242 4.8 14.5 0.00 0.00 0.00 71 1014.5
20260503193519 18 0 1.6 12.9 0.00 0.00 0.00 71 1014.6
20260503193041 18 218 3.2 12.9 0.00 0.00 0.00 73 1014.8
20260503192518 17 219 3.2 12.9 0.00 0.00 0.00 74 1014.7
20260503192018 17 0 1.6 12.9 0.00 0.00 0.00 74 1014.8
20260503191538 17 222 4.8 12.9 0.00 0.00 0.00 75 1014.9
20260503191021 17 0 3.2 14.5 0.00 0.00 0.00 76 1014.9
20260503190520 17 0 0.0 14.5 0.00 0.00 0.00 76 1015.0
20260503190041 16 235 1.6 12.9 0.00 0.00 0.00 77 1015.0
20260503185519 16 240 3.2 11.3 0.00 0.00 0.00 76 1015.1
20260503185018 16 235 3.2 11.3 0.00 0.00 0.00 78 1015.1
20260503184537 16 223 3.2 11.3 0.00 0.00 0.00 79 1015.1
20260503184019 16 0 1.6 11.3 0.00 0.00 0.00 80 1015.2
20260503183517 16 221 1.6 9.7 0.00 0.00 0.00 81 1015.2
20260503183037 15 221 0.0 9.7 0.00 0.00 0.00 82 1015.2
20260503182523 15 222 4.8 9.7 0.00 0.00 0.00 82 1015.2
20260503182017 16 222 3.2 11.3 0.00 0.00 0.00 82 1015.3
20260503181538 16 225 4.8 14.5 0.00 0.00 0.00 82 1015.3
20260503181020 16 0 1.6 14.5 0.00 0.00 0.00 81 1015.2
20260503180521 16 0 1.6 14.5 0.00 0.00 0.00 81 1015.3
20260503180035 16 0 1.6 11.3 0.00 0.00 0.00 81 1015.2
20260503175521 16 0 0.0 0.0 0.00 0.00 0.00 81 1015.1
20260503175020 16 0 0.0 0.0 0.00 0.00 0.00 81 1015.2
20260503174552 16 0 0.0 0.0 0.00 0.00 0.00 80 1015.1
20260503174019 16 0 0.0 0.0 0.00 0.00 0.00 80 1015.1
20260503173518 16 0 0.0 0.0 0.00 0.00 0.00 79 1015.0
20260503173040 16 0 0.0 0.0 0.00 0.00 0.00 79 1015.0
20260503172518 16 0 0.0 0.0 0.00 0.00 0.00 80 1014.9
20260503172018 16 0 0.0 0.0 0.00 0.00 0.00 80 1014.9
20260503171533 16 0 0.0 4.8 0.00 0.00 0.00 80 1014.9
20260503171019 16 0 0.0 12.9 0.00 0.00 0.00 79 1014.8
20260503170519 16 0 1.6 12.9 0.00 0.00 0.00 79 1014.8
20260503150522 14 0 0.0 0.0 0.00 0.00 0.00 89 1014.2
20260503131021 13 0 0.0 0.0 0.00 0.00 0.00 92 1013.5
20260503130521 13 0 0.0 0.0 0.00 0.00 0.00 92 1013.4
20260503110517 14 0 1.6 9.7 0.00 0.00 0.00 91 1012.9
20260503081545 15 239 4.8 14.5 0.00 0.00 0.00 88 1013.6
20260503081017 15 217 1.6 14.5 0.00 0.00 0.00 88 1013.7
20260503080517 15 217 4.8 14.5 0.00 0.00 0.00 88 1013.8
20260503072520 15 246 8.0 16.1 0.00 0.00 0.00 87 1013.4
20260503072022 15 265 4.8 12.9 0.00 0.00 0.00 87 1013.4
20260503071541 15 267 4.8 11.3 0.00 0.00 0.00 87 1013.4
20260503071018 15 0 0.0 12.9 0.00 0.00 0.00 87 1013.3
20260503070517 15 0 1.6 12.9 0.00 0.00 0.00 87 1013.3
20260503055020 15 0 0.0 14.5 0.00 0.00 0.00 84 1013.1
20260503054536 15 0 3.2 14.5 0.00 0.00 0.00 84 1013.0
20260503054022 15 257 3.2 14.5 0.00 0.00 0.00 84 1013.1
20260503053521 15 253 1.6 12.9 0.00 0.00 0.00 84 1013.1
20260503053035 15 254 1.6 14.5 0.00 0.00 0.00 84 1013.0
20260503052521 15 253 8.0 14.5 0.00 0.00 0.00 84 1013.2
20260503052022 15 259 4.8 14.5 0.00 0.00 0.00 83 1013.1
20260503051535 15 258 6.4 14.5 0.00 0.00 0.00 83 1013.1
20260503051021 15 0 1.6 16.1 0.00 0.00 0.00 83 1013.1
20260503050520 15 253 4.8 16.1 0.00 0.00 0.00 83 1013.0
20260503050035 16 248 6.4 16.1 0.00 0.00 0.00 83 1013.1
20260503045521 16 254 6.4 14.5 0.00 0.00 0.00 83 1013.0
20260503045019 16 260 4.8 12.9 0.00 0.00 0.00 82 1013.0
20260503044545 16 258 3.2 11.3 0.00 0.00 0.00 82 1013.0
20260503044021 16 258 3.2 11.3 0.00 0.00 0.00 82 1013.0
20260503043520 16 259 3.2 12.9 0.00 0.00 0.00 81 1012.9
20260503043033 16 259 4.8 12.9 0.00 0.00 0.00 82 1013.0
20260503042521 16 257 4.8 14.5 0.00 0.00 0.00 81 1012.8
20260503042021 16 258 4.8 16.1 0.00 0.00 0.00 81 1012.8
20260503041535 16 256 8.0 17.7 0.00 0.00 0.00 80 1012.6
20260503041021 16 261 8.0 17.7 0.00 0.00 0.00 80 1012.6
20260503040520 16 241 6.4 17.7 0.00 0.00 0.00 80 1012.5
20260503040036 16 250 6.4 17.7 0.00 0.00 0.00 79 1012.5
20260503035520 16 244 4.8 14.5 0.00 0.00 0.00 79 1012.3
20260503035021 16 237 4.8 14.5 0.00 0.00 0.00 79 1012.2
20260503034540 17 238 4.8 19.3 0.00 0.00 0.00 78 1012.2
20260503034022 17 265 9.7 19.3 0.00 0.00 0.00 78 1012.1
20260503033520 17 238 6.4 24.1 0.00 0.00 0.00 77 1011.9
20260503033035 17 234 8.0 24.1 0.00 0.00 0.00 77 1011.8
20260503032520 17 227 9.7 24.1 0.00 0.00 0.00 76 1011.7
20260503032020 17 248 8.0 16.1 0.00 0.00 0.00 76 1011.7
20260503031532 17 250 8.0 17.7 0.00 0.00 0.00 76 1011.6
20260503031020 17 254 8.0 19.3 0.00 0.00 0.00 76 1011.6
20260503030524 17 227 9.7 20.9 0.00 0.00 0.00 76 1011.5
20260503030041 18 254 9.7 20.9 0.00 0.00 0.00 75 1011.4
20260503025521 18 262 6.4 19.3 0.00 0.00 0.00 75 1011.3
20260503025021 18 256 8.0 17.7 0.00 0.00 0.00 74 1011.2
20260503024535 18 252 4.8 17.7 0.00 0.00 0.00 74 1011.1
20260503024017 18 213 6.4 20.9 0.00 0.00 0.00 73 1011.1
20260503023520 18 232 8.0 20.9 0.00 0.00 0.00 72 1011.0
20260503023039 19 248 9.7 17.7 0.00 0.00 0.00 72 1011.0
20260503022521 19 221 6.4 20.9 0.00 0.00 0.00 71 1010.9
20260503022020 20 257 8.0 20.9 0.00 0.00 0.00 70 1010.7
20260503021535 20 215 8.0 17.7 0.00 0.00 0.00 69 1010.6
20260503021021 20 252 11.3 19.3 0.00 0.00 0.00 69 1010.6
20260503020520 21 223 8.0 19.3 0.00 0.00 0.00 68 1010.6
20260503020036 21 249 6.4 17.7 0.00 0.00 0.00 67 1010.6
20260503015521 21 215 8.0 17.7 0.00 0.00 0.00 66 1010.4
20260503015020 21 236 8.0 16.1 0.00 0.00 0.00 65 1010.4
20260503014540 22 252 3.2 14.5 0.00 0.00 0.00 65 1010.4
20260503014020 22 237 6.4 19.3 0.00 0.00 0.00 64 1010.4
20260503013520 22 221 8.0 19.3 0.00 0.00 0.00 64 1010.4
20260503013035 22 234 6.4 19.3 0.00 0.00 0.00 63 1010.3
20260503012522 22 217 8.0 19.3 0.00 0.00 0.00 63 1010.3
20260503012022 23 235 9.7 19.3 0.00 0.00 0.00 63 1010.4
20260503011536 23 196 6.4 16.1 0.00 0.00 0.00 62 1010.4
20260503011020 23 202 8.0 16.1 0.00 0.00 0.00 62 1010.3
20260503010521 23 211 4.8 17.7 0.00 0.00 0.00 62 1010.2
20260503010038 23 227 8.0 17.7 0.00 0.00 0.00 62 1010.3
20260503005520 23 230 8.0 17.7 0.00 0.00 0.00 62 1010.4
20260503005021 23 221 4.8 17.7 0.00 0.00 0.00 61 1010.4